User: anonymous   Login
Location: Brachbach
(49.1847°N, 9.7240°E)
Time: 13:21:14
(UTC+00:00)
Language:

COSMOS 2406 - Orbit

View from above orbital plane
View from above orbital plane
View from above satellite
View from above satellite

Ground track
Ground track

The orbit data is extracted from the following two-line orbital elements,

1 28352U 04021A   24206.17937511  .00000274  00000-0  17577-3 0  9998
2 28352  71.0000 107.5627 0009642 132.6298 227.5637 14.11926807 36932
Epoch (UTC): 24 July 2024 04:18:18
Eccentricity: 0.0009642
inclination: 71.0000°
perigee height: 846 km
apogee height: 860 km
right ascension of ascending node: 107.5627°
argument of perigee: 132.6298°
revolutions per day: 14.11926807
mean anomaly at epoch: 227.5637°
orbit number at epoch: 3693

The dashed part of the orbit path shows where the satellite is in the earth's shadow,  

DLR